Delta 7925 Rocket - Orbit

View from above orbital plane
View from above orbital plane
View from above satellite
View from above satellite

Ground track
Ground track

The orbit data is extracted from the following two-line orbital elements,

1 24809U 97025B   13168.51944256  .00000235  00000-0  60821-4 0  1275
2 24809 026.2968 225.0415 0667724 205.7356 265.7708 13.29604239781658
Epoch (UTC): 17 June 2013 12:27:59
Eccentricity: 0.0667724
inclination: 26.2968°
perigee height: 646 km
apogee height: 1651 km
right ascension of ascending node: 225.0415°
argument of perigee: 205.7356°
revolutions per day: 13.29604239
mean anomaly at epoch: 265.7708°
orbit number at epoch: 78165

The dashed part of the orbit path shows where the satellite is in the earth's shadow,  

Developed and maintained by Chris Peat, Heavens-Above GmbH. Please read the updated FAQ before sending e-mail. Imprint. DLR